Powrót do katalogu

STARLINK-35525

AktywnyŁącznośćVLEO
NORAD 66134·PAYLOAD·🇺🇸 United States

Wystrzelony Oct 22, 2025 z Vandenberg Space Force Base

Loading…

Następne Przeloty (najbliższe 24 godziny)

TLE

ŚwieżeSource: CelesTrak SupGP

Epoka: Sep 14, 2026, 22:50 UTC

1 66134C 25237W   26257.95187500  .00023557  00000+0  69577-3 0  2571
2 66134  53.1574 237.5363 0001416 101.8595 108.3047 15.34389202    18

Śledź STARLINK-35525 w czasie rzeczywistym z AllMySat

Download on the App Store